[[{"header":{"parameterUnit":"m.s-1","parameterCategory":1,"la1":30.2991,"la2":30.254,"lo1":-89.0895,"lo2":-89.0444,"dy":0.0017,"dx":0.0017,"nx":28,"ny":28,"refTime":"2025-08-01T03:00:00:Z","depth":0,"parameterNumber":2,"parameterNumberName":"U-component_of_WINDS"},"data":[0,0,0,0,0,0,0,0,0,0,0,0,0,0,0,0,0,0,0,0,0,0,0,0,0,0,0,0,0,0,0,0,0,0,0,0,0,0,0,0,0,0,0,0,0,0,0,0,0,0,0,0,0,0,0,0,0,0,2.063,2.063,0,2.0651,2.0651,2.0651,2.062,2.0619,2.0618,2.0617,2.0638,2.0639,2.0641,0,0,0,0,0,0,0,0,0,0,0,0,0,2.0563,2.0565,2.063,2.063,2.063,2.0651,2.0651,2.0651,2.062,2.0619,2.0618,2.0616,2.0637,2.0639,2.0641,0,0,0,0,0,0,0,0,0,0,0,0,0,2.0589,2.0565,2.063,2.0617,2.0616,2.0651,2.0651,2.0651,2.0621,2.0619,2.0617,2.0616,2.0637,2.0639,2.0641,2.0689,0,0,2.0648,2.0649,0,0,0,0,0,0,0,0,2.0588,2.0591,2.0619,2.0618,2.0617,2.0631,2.0635,2.0664,2.0621,2.0619,2.0617,2.0615,2.0637,2.0639,2.0647,2.069,2.069,2.0649,2.065,2.0651,2.0652,0,0,0,0,0,0,0,2.0586,2.059,2.0638,2.0619,2.0618,2.0611,2.0613,2.0641,2.0637,2.0619,2.0617,2.062,2.0636,2.0644,2.0647,2.0691,2.0648,2.0651,2.0652,2.0653,2.0776,2.0778,0,0,0,0,0,0,2.0586,2.0589,2.0637,2.0639,2.0598,2.0613,2.0615,2.0628,2.0636,2.0636,2.0621,2.0618,2.0641,2.0644,2.0647,2.0705,2.0651,2.0653,2.0655,2.0774,2.0777,2.0779,0,0,0,0,0,0,2.0584,2.059,2.0637,2.0613,2.0619,2.0616,2.0631,2.063,2.0638,2.0638,2.0637,2.063,2.064,2.0644,2.0679,2.0705,2.0654,2.0656,2.0772,2.0775,2.0778,2.0819,0,0,0,0,0,0,2.0582,2.059,2.0607,2.0614,2.062,2.0668,2.0633,2.0631,2.0642,2.0639,2.0646,2.0646,2.0639,2.0676,2.0682,2.0707,2.0658,2.077,2.0773,2.0777,2.0816,2.0823,2.083,0,0,0,0,0,2.058,2.0618,2.0608,2.0614,2.0642,2.0669,2.0673,2.0664,2.0644,2.0662,2.0663,2.0646,2.0702,2.068,2.0686,2.0713,2.0768,2.0772,2.0776,2.0813,2.0822,2.083,0,0,0,0,0,0,2.0613,2.0618,2.0608,2.0649,2.0659,2.0664,2.0686,2.0674,2.0689,2.0685,2.0674,2.0676,2.0714,2.0717,2.0692,2.076,2.0732,2.0737,2.0757,2.0766,2.0773,2.0771,2.066,0,0,0,0,0,2.0625,2.0647,2.065,2.0686,2.0692,2.0688,2.07,2.0692,2.0702,2.0706,2.0709,2.0719,2.074,2.0753,2.0771,2.0816,2.0818,2.0838,2.0845,2.0851,2.0856,2.0882,2.0892,2.0792,2.0792,2.0792,0,0,2.065,2.0656,2.067,2.0693,2.07,2.0723,2.0692,2.0717,2.0735,2.071,2.0744,2.0747,2.0757,2.0798,2.0817,2.0802,2.0884,2.0856,2.0861,2.0863,2.0887,2.0897,2.0905,2.0795,2.0795,2.0794,0,0,2.0708,2.0714,2.0745,2.0754,2.0765,2.0763,2.0771,2.0778,2.0779,2.0813,2.0796,2.0817,2.0851,2.086,2.0869,2.0933,2.0919,2.0939,2.0976,2.1002,2.101,2.1017,2.1041,2.105,2.0944,2.0945,2.0945,0,2.0738,2.0772,2.0763,2.079,2.0801,2.0781,2.0814,2.0822,2.0839,2.0847,2.0831,2.0875,2.0881,2.0925,2.0941,2.0948,2.0957,2.0938,2.1009,2.1016,2.1022,2.1046,2.1055,2.0947,2.0947,2.0946,2.0946,0,2.0808,2.0833,2.0857,2.0875,2.0888,2.0918,2.0914,2.0929,2.0922,2.0922,2.0958,2.0964,2.0984,2.0994,2.0986,2.1038,2.1029,2.1011,2.0982,2.1035,2.1056,2.1065,2.0951,2.095,2.0949,2.0948,0,0,2.0886,2.09,2.0909,2.0918,2.0931,2.0949,2.0979,2.0999,2.1013,2.1026,2.1051,2.1082,2.1067,2.1077,2.107,2.1093,2.1146,2.1073,2.1073,2.1087,2.1205,2.1218,2.1229,2.1136,2.1138,2.1139,2.1204,0,2.0944,2.0995,2.0989,2.1039,2.1062,2.1045,2.107,2.1081,2.1083,2.1103,2.1104,2.1127,2.1104,2.1111,2.1132,2.1135,2.1169,2.113,2.116,2.1162,2.1159,2.124,2.1254,2.1315,2.1213,2.1214,2.1215,0,2.1019,2.1036,2.1088,2.1099,2.1108,2.1132,2.1151,2.1171,2.1184,2.1183,2.1196,2.1186,2.1217,2.1188,2.123,2.1204,2.1216,2.122,2.1222,2.1225,2.1192,2.1245,2.1334,2.1343,2.1228,2.1227,2.1226,0,2.1071,2.1107,2.1144,2.1152,2.1165,2.1182,2.1189,2.12,2.1214,2.1231,2.124,2.126,2.1272,2.1288,2.1284,2.1263,2.1329,2.1299,2.133,2.1331,2.1345,2.1344,2.1437,2.1352,2.1352,2.1352,2.1351,0,2.1138,2.117,2.1168,2.119,2.1227,2.122,2.1257,2.1261,2.1272,2.1295,2.1281,2.1304,2.1297,2.132,2.1317,2.1354,2.1359,2.136,2.1359,2.1362,2.1362,2.137,2.1366,2.1354,2.1353,2.1353,2.1353,0,2.1202,2.1202,2.1241,2.1251,2.1255,2.1281,2.1291,2.1312,2.1313,2.1344,2.135,2.1352,2.1378,2.1376,2.1405,2.1403,2.145,2.1443,2.1445,2.1444,2.1477,2.1474,2.1578,2.1593,2.1497,2.1498,2.1499,0,2.1245,2.127,2.1284,2.1299,2.1307,2.1331,2.1346,2.1341,2.1356,2.1374,2.1394,2.1419,2.1439,2.1481,2.1485,2.1508,2.1503,2.1538,2.1506,2.1509,2.1505,2.1504,2.1507,2.1544,2.1545,2.1546,2.1547,0,2.132,2.132,2.1341,2.1363,2.1381,2.1398,2.1414,2.1427,2.1424,2.1442,2.1469,2.1485,2.1515,2.1541,2.1563,2.157,2.1559,2.1557,2.1566,2.1569,2.157,2.1571,2.1464,2.1554,2.1554,2.1553,2.1553,2.1552,2.1376,2.1398,2.1412,2.1437,2.1449,2.1465,2.1486,2.1491,2.1513,2.1538,2.1534,2.1565,2.1579,2.1608,2.1618,2.1642,2.163,2.1642,2.1645,2.1648,2.1653,2.1566,2.1646,2.1646,2.1646,2.1645,2.1645,0,2.1452,2.1461,2.1484,2.1507,2.1527,2.1515,2.1533,2.155,2.1578,2.1592,2.1613,2.1645,2.167,2.1678,2.1702,2.1721,2.1716,2.1728,2.1726,2.1729,2.1662,2.1652,2.1731,2.1731,2.1731,2.1731,2.1731,2.1731,2.1494,2.1532,2.1533,2.1578,2.1586,2.1617,2.1628,2.1643,2.1654,2.1691,2.1713,2.1717,2.173,2.1756,2.1779,2.178,2.1791,2.1805,2.1804,2.1742,2.1733,2.1725,2.1716,2.1807,2.1807,2.1869,2.187,2.187]},{"header":{"parameterUnit":"m.s-1","parameterCategory":1,"la1":30.2991,"la2":30.254,"lo1":-89.0895,"lo2":-89.0444,"dy":0.0017,"dx":0.0017,"nx":28,"ny":28,"refTime":"2025-08-01T03:00:00:Z","depth":0,"parameterNumber":3,"parameterNumberName":"V-component_of_WINDS"},"data":[0,0,0,0,0,0,0,0,0,0,0,0,0,0,0,0,0,0,0,0,0,0,0,0,0,0,0,0,0,0,0,0,0,0,0,0,0,0,0,0,0,0,0,0,0,0,0,0,0,0,0,0,0,0,0,0,0,0,-1.8593,-1.8593,0,-1.8597,-1.8598,-1.8598,-1.8605,-1.8606,-1.8606,-1.8606,-1.8609,-1.8609,-1.8609,0,0,0,0,0,0,0,0,0,0,0,0,0,-1.8588,-1.8588,-1.8593,-1.8593,-1.8593,-1.8597,-1.8598,-1.8598,-1.8605,-1.8606,-1.8606,-1.8606,-1.8609,-1.8609,-1.8609,0,0,0,0,0,0,0,0,0,0,0,0,0,-1.8591,-1.8588,-1.8593,-1.8597,-1.8598,-1.8597,-1.8598,-1.8598,-1.8605,-1.8606,-1.8606,-1.8606,-1.8609,-1.8609,-1.8609,-1.8604,0,0,-1.8609,-1.8609,0,0,0,0,0,0,0,0,-1.8591,-1.8591,-1.8597,-1.8597,-1.8598,-1.8601,-1.8597,-1.86,-1.8605,-1.8602,-1.8606,-1.8606,-1.8606,-1.8606,-1.8607,-1.8604,-1.8604,-1.8609,-1.8609,-1.8609,-1.8609,0,0,0,0,0,0,0,-1.8591,-1.8591,-1.8595,-1.8597,-1.8597,-1.8598,-1.8599,-1.8598,-1.8603,-1.8603,-1.8603,-1.8604,-1.8606,-1.8607,-1.8607,-1.8604,-1.8609,-1.8609,-1.8609,-1.8608,-1.8596,-1.8596,0,0,0,0,0,0,-1.859,-1.8591,-1.8594,-1.8595,-1.8595,-1.8598,-1.8599,-1.86,-1.8603,-1.8604,-1.8604,-1.8604,-1.8607,-1.8607,-1.8607,-1.86,-1.8609,-1.8608,-1.8608,-1.8597,-1.8596,-1.8596,0,0,0,0,0,0,-1.859,-1.859,-1.8594,-1.8593,-1.8594,-1.8598,-1.8599,-1.86,-1.86,-1.8604,-1.8604,-1.8603,-1.8607,-1.8607,-1.8604,-1.86,-1.8608,-1.8608,-1.8597,-1.8596,-1.8596,-1.8588,0,0,0,0,0,0,-1.859,-1.859,-1.8589,-1.8593,-1.8594,-1.8592,-1.8599,-1.86,-1.86,-1.8601,-1.8603,-1.8604,-1.8607,-1.8604,-1.8604,-1.8601,-1.8608,-1.8597,-1.8597,-1.8596,-1.8588,-1.8587,-1.8586,0,0,0,0,0,-1.859,-1.8586,-1.8589,-1.8589,-1.8592,-1.8592,-1.8592,-1.8597,-1.86,-1.8598,-1.86,-1.8604,-1.8601,-1.8604,-1.8604,-1.86,-1.8597,-1.8597,-1.8596,-1.8589,-1.8587,-1.8586,0,0,0,0,0,0,-1.8582,-1.8587,-1.859,-1.8588,-1.859,-1.8594,-1.8592,-1.8595,-1.8595,-1.8596,-1.86,-1.8601,-1.8597,-1.8599,-1.8602,-1.8595,-1.86,-1.8599,-1.8594,-1.8593,-1.8591,-1.8591,-1.8608,0,0,0,0,0,-1.858,-1.858,-1.8584,-1.8582,-1.8583,-1.8587,-1.8587,-1.859,-1.8592,-1.8592,-1.8594,-1.8595,-1.8594,-1.8594,-1.8593,-1.8588,-1.8588,-1.8586,-1.8584,-1.8583,-1.8583,-1.8579,-1.8577,-1.8594,-1.8594,-1.8594,0,0,-1.8576,-1.8579,-1.8579,-1.8581,-1.8582,-1.8581,-1.8588,-1.8587,-1.8586,-1.8592,-1.8589,-1.8591,-1.8592,-1.8588,-1.8586,-1.8589,-1.8578,-1.8583,-1.8582,-1.8581,-1.8578,-1.8576,-1.8575,-1.8593,-1.8593,-1.8594,0,0,-1.8568,-1.8571,-1.8569,-1.857,-1.8572,-1.8575,-1.8574,-1.8578,-1.8579,-1.8576,-1.8581,-1.8579,-1.8578,-1.8578,-1.8578,-1.8569,-1.8572,-1.8569,-1.8562,-1.8558,-1.8557,-1.8556,-1.8551,-1.855,-1.8568,-1.8568,-1.8568,0,-1.8562,-1.8562,-1.8567,-1.8566,-1.8566,-1.8572,-1.8569,-1.857,-1.8572,-1.8571,-1.8574,-1.8572,-1.8573,-1.8569,-1.8566,-1.8566,-1.8565,-1.8568,-1.8557,-1.8556,-1.8555,-1.855,-1.8549,-1.8567,-1.8568,-1.8568,-1.8568,0,-1.8555,-1.8554,-1.8552,-1.8554,-1.8554,-1.8552,-1.8555,-1.8555,-1.8557,-1.8559,-1.8556,-1.8558,-1.8557,-1.8556,-1.8559,-1.8551,-1.8553,-1.8556,-1.8561,-1.8553,-1.8548,-1.8547,-1.8567,-1.8567,-1.8567,-1.8567,0,0,-1.8542,-1.8546,-1.8545,-1.8546,-1.8548,-1.8547,-1.8545,-1.8545,-1.8543,-1.8544,-1.8541,-1.854,-1.8542,-1.8542,-1.8545,-1.8542,-1.8533,-1.8545,-1.8545,-1.8542,-1.8523,-1.8519,-1.8518,-1.8535,-1.8534,-1.8534,-1.8522,0,-1.8534,-1.8531,-1.8535,-1.853,-1.8529,-1.8534,-1.8532,-1.8532,-1.8534,-1.8532,-1.8534,-1.8532,-1.8537,-1.8536,-1.8533,-1.8534,-1.8529,-1.8535,-1.8531,-1.8531,-1.853,-1.8516,-1.8512,-1.8501,-1.8521,-1.8521,-1.852,0,-1.8525,-1.8525,-1.852,-1.8522,-1.8521,-1.8519,-1.8519,-1.8518,-1.8518,-1.8519,-1.8518,-1.8521,-1.8518,-1.8523,-1.8517,-1.8522,-1.852,-1.852,-1.852,-1.8519,-1.8524,-1.8513,-1.8498,-1.8496,-1.8518,-1.8518,-1.8519,0,-1.8515,-1.8514,-1.8511,-1.8511,-1.8513,-1.8511,-1.8512,-1.8512,-1.8511,-1.8511,-1.851,-1.8508,-1.8507,-1.8505,-1.8507,-1.8511,-1.8501,-1.8507,-1.85,-1.85,-1.8498,-1.8498,-1.848,-1.8498,-1.8498,-1.8498,-1.8498,0,-1.8505,-1.8502,-1.8506,-1.8504,-1.85,-1.8504,-1.8499,-1.8501,-1.8501,-1.8498,-1.8502,-1.8499,-1.8503,-1.85,-1.8501,-1.8495,-1.8495,-1.8495,-1.8495,-1.8494,-1.8494,-1.8492,-1.8493,-1.8498,-1.8498,-1.8498,-1.8498,0,-1.8493,-1.8496,-1.8493,-1.8495,-1.8495,-1.8492,-1.8493,-1.8491,-1.8492,-1.8489,-1.8488,-1.849,-1.8487,-1.8489,-1.8485,-1.8486,-1.8478,-1.848,-1.8478,-1.8478,-1.8471,-1.8471,-1.8452,-1.8449,-1.847,-1.8469,-1.8469,0,-1.8486,-1.8484,-1.8485,-1.8484,-1.8485,-1.8483,-1.8481,-1.8485,-1.8483,-1.8483,-1.848,-1.8477,-1.8475,-1.8469,-1.8469,-1.8466,-1.8467,-1.8461,-1.8467,-1.8465,-1.8466,-1.8465,-1.8464,-1.8459,-1.8459,-1.8459,-1.8459,0,-1.8474,-1.8475,-1.8474,-1.8472,-1.8471,-1.847,-1.847,-1.8468,-1.8471,-1.8469,-1.8466,-1.8464,-1.846,-1.8457,-1.8454,-1.8453,-1.8456,-1.8457,-1.8455,-1.8453,-1.8452,-1.8451,-1.8473,-1.8457,-1.8457,-1.8457,-1.8457,-1.8458,-1.8463,-1.8461,-1.8461,-1.8459,-1.8459,-1.8458,-1.8455,-1.8456,-1.8454,-1.8451,-1.8453,-1.8449,-1.8448,-1.8444,-1.8443,-1.8439,-1.8441,-1.8439,-1.8438,-1.8437,-1.8436,-1.8453,-1.8438,-1.8438,-1.8438,-1.8438,-1.8438,0,-1.845,-1.845,-1.8448,-1.8447,-1.8445,-1.8448,-1.8447,-1.8445,-1.8441,-1.844,-1.8438,-1.8433,-1.8429,-1.8429,-1.8425,-1.8422,-1.8423,-1.8421,-1.842,-1.842,-1.8434,-1.8436,-1.842,-1.842,-1.842,-1.842,-1.842,-1.842,-1.8443,-1.8438,-1.8439,-1.8434,-1.8434,-1.843,-1.8429,-1.8428,-1.8427,-1.8421,-1.8418,-1.8418,-1.8417,-1.8413,-1.8409,-1.8409,-1.8407,-1.8404,-1.8404,-1.8417,-1.8419,-1.8421,-1.8422,-1.8404,-1.8404,-1.839,-1.8389,-1.8389]}]]